Location: Ash Swamp
(41.5170°N, 74.6157°W)
Time: 17:25:58
(UTC+00:00)

Cosmos 972 Rocket - Pass Details

Date: 14 July 2020
Orbit: 713 x 1151 km, 75.8° (Epoch: 04 August)

Event Time Altitude Azimuth Distance (km) Brightness Sun altitude
Rises 05:47:39 0° 338° (NNW) 3,588 8.3 -26.1°
Reaches altitude 10° 05:50:19 10° 335° (NNW) 2,571 7.4 -26.0°
Enters shadow 05:55:56 55° 261° (W) 989 4.3 -25.8°
